Hourly Data Report for May 22, 2003

TORONTO CITY
ONTARIO

43°40'00.000" N
79°24'00.000" W
112.50 m
6158355
71508
XTO

Download Data

Hourly Data (May 2003)
Hourly Data Report for May 22, 2003
TIME
LST
Temp Definition
°C
Dew Point Definition
°C
Rel Hum Definition
%
Precip. Amount Definition
mm

Wind Dir Definition
10's deg

Wind Spd Definition
km/h
Visibility Definition
km
Stn Press Definition
kPa
Hmdx Definition


Wind Chill Definition


Weather Definition


00:00 9.5 1.2 56   LegendMM LegendMM LegendMM 101.31     LegendNANA
01:00 9.1 1.0 57   LegendMM LegendMM LegendMM 101.28     LegendNANA
02:00 8.9 0.4 55   LegendMM LegendMM LegendMM 101.27     LegendNANA
03:00 9.2 -1.3 48   LegendMM LegendMM LegendMM 101.28     LegendNANA
04:00 8.9 -1.9 47   LegendMM LegendMM LegendMM 101.25     LegendNANA
05:00 9.2 -2.5 44   LegendMM LegendMM LegendMM 101.26     LegendNANA
06:00 9.8 -2.3 43   LegendMM LegendMM LegendMM 101.29     LegendNANA
07:00 11.2 -2.3 39   LegendMM LegendMM LegendMM 101.33     LegendNANA
08:00 11.4 -2.1 39   LegendMM LegendMM LegendMM 101.37     LegendNANA
09:00 12.3 -1.3 39   LegendMM LegendMM LegendMM 101.37     LegendNANA
10:00 12.9 -3.5 32   LegendMM LegendMM LegendMM 101.32     LegendNANA
11:00 14.0 -0.5 37   LegendMM LegendMM LegendMM 101.29     LegendNANA
12:00 13.5 -1.4 36   LegendMM LegendMM LegendMM 101.24     LegendNANA
13:00 13.9 -1.8 34   LegendMM LegendMM LegendMM 101.19     LegendNANA
14:00 13.5 -2.1 34   LegendMM LegendMM LegendMM 101.16     LegendNANA
15:00 13.9 -1.0 36   LegendMM LegendMM LegendMM 101.11     LegendNANA
16:00 13.4 -0.4 39   LegendMM LegendMM LegendMM 101.05     LegendNANA
17:00 13.1 -1.0 38   LegendMM LegendMM LegendMM 101.04     LegendNANA
18:00 12.8 -0.5 40   LegendMM LegendMM LegendMM 101.04     LegendNANA
19:00 12.8 -0.9 39   LegendMM LegendMM LegendMM 101.02     LegendNANA
20:00 12.3 0.4 44   LegendMM LegendMM LegendMM 101.03     LegendNANA
21:00 12.2 0.6 45   LegendMM LegendMM LegendMM 101.03     LegendNANA
22:00 11.9 1.3 48   LegendMM LegendMM LegendMM 101.00     LegendNANA
23:00 11.7 1.9 51   LegendMM LegendMM LegendMM 100.95     LegendNANA

Notes on Data Quality.

Legend

  • E = Estimated
  • M = Missing
  • NA = Not Available*
  • [empty] = Indicates an unobserved value
Date modified: